Location: *
(47.6569°N, 7.4256°E)
Time: 07:07:20
(UTC+00:00)

Cosmos 1428 Rocket - Pass Details

Date: 14 December 2019
Orbit: 948 x 988 km, 82.9° (Epoch: 18 January)

Event Time Altitude Azimuth Distance (km) Brightness Sun altitude
Rises 17:22:46 0° 185° (S) 3,634 7.8 -16.6°
Reaches altitude 10° 17:25:14 10° 185° (S) 2,697 7.1 -17.0°
Maximum altitude 17:31:26 86° 98° (E) 982 4.4 -18.0°
Drops below altitude 10° 17:37:44 10° 10° (N) 2,743 6.6 -19.0°
Sets 17:40:16 0° 10° (N) 3,699 7.3 -19.4°
